JILIN-01 KUANFU 02B 3

导读 | 豆包AI

JILIN-01 KUANFU 02B 3是中国于2024年9月20日在太原卫星发射中心,通过长征二号丁运载火箭发射的吉林一号宽幅02B系列卫星之一,同箭共发射01~06星六颗卫星。它是超大幅宽亚米级光学遥感卫星,搭载离轴四反光学相机,可提供150千米幅宽、0.5米分辨率影像。入轨后与现有吉林一号星座组网,服务于国土资源、智慧城市等领域。

基本信息
目录编号:
61191
目录名称:
JILIN-01 KUANFU 02B 3
国际标识:
2024-169C
轨道中心:
EARTH
卫星名称:
JILIN-01 KUANFU 02B 3
卫星全名:
JILIN-01 KUANFU 02B 3
卫星状态:
在轨 (已飞行540 天)
发射日期:
2024-09-20 UTC
国别 :
中国 (CN)
星等 :
--
轨道信息
数据来源 国际轨道数据
星历时间: 2026-03-13T21:37:43+0800
11小时前
查看轨道信息
半长轴: 6916.525km
偏心率: 0.0015789
轨道倾角: 97.556°
近地点辐角 291.539°
升交点赤经 163.336°
平近点角 68.416°
近地点: 527.467km
远地点: 549.309km
周期: 95.409分钟
每日圈数: 15.092837
详细信息
使用方式:
暂无
2D轨道图
3D轨道图
轨道高度分析图
轨道倾角分析图
轨道综合分析图
查看轨道综合分析图